owner,sensor,date,latitude,longitude,vertical_datum,mass_concentration_of_oxygen_in_sea_water,qcFlag 
SCCF RECON,ioos:station:SCCF:16:1,2008-09-01T00:00:00Z,26.4345,-81.9647,2.604,5.3,1111122 
SCCF RECON,ioos:station:SCCF:16:1,2008-09-01T01:00:00Z,26.4345,-81.9647,2.596,5.27,1111122 
SCCF RECON,ioos:station:SCCF:16:1,2008-09-01T02:00:00Z,26.4345,-81.9647,2.772,5.37,1111122 
SCCF RECON,ioos:station:SCCF:16:1,2008-09-01T03:00:00Z,26.4345,-81.9647,2.917,5.39,1111122 
SCCF RECON,ioos:station:SCCF:16:1,2008-09-01T04:00:00Z,26.4345,-81.9647,2.928,5.56,1111122 
SCCF RECON,ioos:station:SCCF:16:1,2008-09-01T05:00:00Z,26.4345,-81.9647,2.96,5.51,1111122 
SCCF RECON,ioos:station:SCCF:16:1,2008-09-01T06:00:00Z,26.4345,-81.9647,2.918,5.46,1111122 
SCCF RECON,ioos:station:SCCF:16:1,2008-09-01T07:00:00Z,26.4345,-81.9647,2.862,5.34,1111122 
SCCF RECON,ioos:station:SCCF:16:1,2008-09-01T08:00:00Z,26.4345,-81.9647,2.68,5.21,1111122 
SCCF RECON,ioos:station:SCCF:16:1,2008-09-01T09:00:00Z,26.4345,-81.9647,2.5,5.08,1111122 
SCCF RECON,ioos:station:SCCF:16:1,2008-09-01T10:00:00Z,26.4345,-81.9647,2.387,5.14,1111122 
SCCF RECON,ioos:station:SCCF:16:1,2008-09-01T11:00:00Z,26.4345,-81.9647,2.268,5.11,1111122 
SCCF RECON,ioos:station:SCCF:16:1,2008-09-01T12:00:00Z,26.4345,-81.9647,2.216,5.01,1111122 
SCCF RECON,ioos:station:SCCF:16:1,2008-09-01T13:00:00Z,26.4345,-81.9647,2.277,4.84,1111122 
SCCF RECON,ioos:station:SCCF:16:1,2008-09-01T14:00:00Z,26.4345,-81.9647,2.491,4.88,1111122 
SCCF RECON,ioos:station:SCCF:16:1,2008-09-01T15:00:00Z,26.4345,-81.9647,2.744,5.2,1111122 
SCCF RECON,ioos:station:SCCF:16:1,2008-09-01T16:00:00Z,26.4345,-81.9647,2.889,5.46,1111122 
SCCF RECON,ioos:station:SCCF:16:1,2008-09-01T17:00:00Z,26.4345,-81.9647,2.971,5.41,1111122 
SCCF RECON,ioos:station:SCCF:16:1,2008-09-01T18:00:00Z,26.4345,-81.9647,3.085,5.51,1111122 
SCCF RECON,ioos:station:SCCF:16:1,2008-09-01T19:00:00Z,26.4345,-81.9647,3.061,5.84,1111122 
SCCF RECON,ioos:station:SCCF:16:1,2008-09-01T20:00:00Z,26.4345,-81.9647,2.973,6.28,1111122 
SCCF RECON,ioos:station:SCCF:16:1,2008-09-01T21:00:00Z,26.4345,-81.9647,2.811,6.82,1111122 
SCCF RECON,ioos:station:SCCF:16:1,2008-09-01T22:00:00Z,26.4345,-81.9647,2.687,7.15,1111122 
SCCF RECON,ioos:station:SCCF:16:1,2008-09-01T23:00:00Z,26.4345,-81.9647,2.553,7.01,1111122 
SCCF RECON,ioos:station:SCCF:16:1,2008-09-02T00:00:00Z,26.4345,-81.9647,2.479,6.09,1111122 
SCCF RECON,ioos:station:SCCF:16:1,2008-09-02T01:00:00Z,26.4345,-81.9647,2.459,5.24,1111122 
SCCF RECON,ioos:station:SCCF:16:1,2008-09-02T02:00:00Z,26.4345,-81.9647,2.515,5.35,1111122 
SCCF RECON,ioos:station:SCCF:16:1,2008-09-02T03:00:00Z,26.4345,-81.9647,2.689,5.23,1111122 
SCCF RECON,ioos:station:SCCF:16:1,2008-09-02T04:00:00Z,26.4345,-81.9647,2.85,5.69,1111122 
SCCF RECON,ioos:station:SCCF:16:1,2008-09-02T05:00:00Z,26.4345,-81.9647,2.927,5.94,1111122 
SCCF RECON,ioos:station:SCCF:16:1,2008-09-02T06:00:00Z,26.4345,-81.9647,2.942,6.15,1111122 
SCCF RECON,ioos:station:SCCF:16:1,2008-09-02T07:00:00Z,26.4345,-81.9647,2.891,6.18,1111122 
SCCF RECON,ioos:station:SCCF:16:1,2008-09-02T08:00:00Z,26.4345,-81.9647,2.743,5.84,1111122 
SCCF RECON,ioos:station:SCCF:16:1,2008-09-02T09:00:00Z,26.4345,-81.9647,2.568,5.37,1111122 
SCCF RECON,ioos:station:SCCF:16:1,2008-09-02T10:00:00Z,26.4345,-81.9647,2.417,5.08,1111122 
SCCF RECON,ioos:station:SCCF:16:1,2008-09-02T11:00:00Z,26.4345,-81.9647,2.284,4.74,1111122 
SCCF RECON,ioos:station:SCCF:16:1,2008-09-02T12:00:00Z,26.4345,-81.9647,2.123,4.72,1111122 
SCCF RECON,ioos:station:SCCF:16:1,2008-09-02T13:00:00Z,26.4345,-81.9647,2.04,4.75,1111122 
SCCF RECON,ioos:station:SCCF:16:1,2008-09-02T14:00:00Z,26.4345,-81.9647,2.168,4.67,1111122 
SCCF RECON,ioos:station:SCCF:16:1,2008-09-02T15:00:00Z,26.4345,-81.9647,2.375,4.83,1111122 
SCCF RECON,ioos:station:SCCF:16:1,2008-09-02T16:00:00Z,26.4345,-81.9647,2.559,5.04,1111122 
SCCF RECON,ioos:station:SCCF:16:1,2008-09-02T17:00:00Z,26.4345,-81.9647,2.693,5.53,1111122 
SCCF RECON,ioos:station:SCCF:16:1,2008-09-02T18:00:00Z,26.4345,-81.9647,2.767,5.66,1111122 
SCCF RECON,ioos:station:SCCF:16:1,2008-09-02T19:00:00Z,26.4345,-81.9647,2.807,5.58,1111122 
SCCF RECON,ioos:station:SCCF:16:1,2008-09-02T20:00:00Z,26.4345,-81.9647,2.78,6.14,1111122 
SCCF RECON,ioos:station:SCCF:16:1,2008-09-02T21:00:00Z,26.4345,-81.9647,2.707,6.64,1111122 
SCCF RECON,ioos:station:SCCF:16:1,2008-09-02T22:00:00Z,26.4345,-81.9647,2.641,6.77,1111122 
SCCF RECON,ioos:station:SCCF:16:1,2008-09-02T23:00:00Z,26.4345,-81.9647,2.527,6.94,1111122 
SCCF RECON,ioos:station:SCCF:16:1,2008-09-03T00:00:00Z,26.4345,-81.9647,2.476,6.73,1111122 
SCCF RECON,ioos:station:SCCF:16:1,2008-09-03T01:00:00Z,26.4345,-81.9647,2.442,6.63,1111122 
SCCF RECON,ioos:station:SCCF:16:1,2008-09-03T02:00:00Z,26.4345,-81.9647,2.427,6.01,1111122 
SCCF RECON,ioos:station:SCCF:16:1,2008-09-03T03:00:00Z,26.4345,-81.9647,2.574,6.47,1111122 
SCCF RECON,ioos:station:SCCF:16:1,2008-09-03T04:00:00Z,26.4345,-81.9647,2.79,6.35,1111122 
SCCF RECON,ioos:station:SCCF:16:1,2008-09-03T05:00:00Z,26.4345,-81.9647,2.887,6.22,1111122 
SCCF RECON,ioos:station:SCCF:16:1,2008-09-03T06:00:00Z,26.4345,-81.9647,2.945,6.55,1111122 
SCCF RECON,ioos:station:SCCF:16:1,2008-09-03T07:00:00Z,26.4345,-81.9647,2.962,6.48,1111122 
SCCF RECON,ioos:station:SCCF:16:1,2008-09-03T08:00:00Z,26.4345,-81.9647,2.881,6.29,1111122 
SCCF RECON,ioos:station:SCCF:16:1,2008-09-03T09:00:00Z,26.4345,-81.9647,2.777,6.12,1111122 
SCCF RECON,ioos:station:SCCF:16:1,2008-09-03T10:00:00Z,26.4345,-81.9647,2.652,6.12,1111122 
SCCF RECON,ioos:station:SCCF:16:1,2008-09-03T11:00:00Z,26.4345,-81.9647,2.473,6.04,1111122 
SCCF RECON,ioos:station:SCCF:16:1,2008-09-03T12:00:00Z,26.4345,-81.9647,2.324,5.29,1111122 
SCCF RECON,ioos:station:SCCF:16:1,2008-09-03T13:00:00Z,26.4345,-81.9647,2.23,5.05,1111122 
SCCF RECON,ioos:station:SCCF:16:1,2008-09-03T14:00:00Z,26.4345,-81.9647,2.217,5.09,1111122 
SCCF RECON,ioos:station:SCCF:16:1,2008-09-03T15:00:00Z,26.4345,-81.9647,2.339,5.04,1111122 
SCCF RECON,ioos:station:SCCF:16:1,2008-09-03T16:00:00Z,26.4345,-81.9647,2.518,5.0,1111122 
SCCF RECON,ioos:station:SCCF:16:1,2008-09-03T17:00:00Z,26.4345,-81.9647,2.666,6.13,1111122 
SCCF RECON,ioos:station:SCCF:16:1,2008-09-03T18:00:00Z,26.4345,-81.9647,2.742,6.22,1111122 
SCCF RECON,ioos:station:SCCF:16:1,2008-09-03T19:00:00Z,26.4345,-81.9647,2.782,6.17,1111122 
SCCF RECON,ioos:station:SCCF:16:1,2008-09-03T20:00:00Z,26.4345,-81.9647,2.811,6.29,1111122 
SCCF RECON,ioos:station:SCCF:16:1,2008-09-03T21:00:00Z,26.4345,-81.9647,2.798,6.09,1111122 
SCCF RECON,ioos:station:SCCF:16:1,2008-09-03T22:00:00Z,26.4345,-81.9647,2.745,6.07,1111122 
SCCF RECON,ioos:station:SCCF:16:1,2008-09-03T23:00:00Z,26.4345,-81.9647,2.666,6.24,1111122 
SCCF RECON,ioos:station:SCCF:16:1,2008-09-04T00:00:00Z,26.4345,-81.9647,2.591,5.88,1111122 
SCCF RECON,ioos:station:SCCF:16:1,2008-09-04T01:00:00Z,26.4345,-81.9647,2.526,6.17,1111122 
SCCF RECON,ioos:station:SCCF:16:1,2008-09-04T02:00:00Z,26.4345,-81.9647,2.56,6.82,1111122 
SCCF RECON,ioos:station:SCCF:16:1,2008-09-04T03:00:00Z,26.4345,-81.9647,2.606,6.79,1111122 
SCCF RECON,ioos:station:SCCF:16:1,2008-09-04T04:00:00Z,26.4345,-81.9647,2.778,6.52,1111122 
SCCF RECON,ioos:station:SCCF:16:1,2008-09-04T05:00:00Z,26.4345,-81.9647,2.922,6.27,1111122 
SCCF RECON,ioos:station:SCCF:16:1,2008-09-04T06:00:00Z,26.4345,-81.9647,2.978,6.55,1111122 
SCCF RECON,ioos:station:SCCF:16:1,2008-09-04T07:00:00Z,26.4345,-81.9647,2.981,6.52,1111122 
SCCF RECON,ioos:station:SCCF:16:1,2008-09-04T08:00:00Z,26.4345,-81.9647,2.955,6.49,1111122 
SCCF RECON,ioos:station:SCCF:16:1,2008-09-04T09:00:00Z,26.4345,-81.9647,2.892,6.26,1111122 
SCCF RECON,ioos:station:SCCF:16:1,2008-09-04T10:00:00Z,26.4345,-81.9647,2.784,6.0,1111122 
SCCF RECON,ioos:station:SCCF:16:1,2008-09-04T11:00:00Z,26.4345,-81.9647,2.593,6.25,1111122 
SCCF RECON,ioos:station:SCCF:16:1,2008-09-04T12:00:00Z,26.4345,-81.9647,2.473,5.68,1111122 
SCCF RECON,ioos:station:SCCF:16:1,2008-09-04T13:00:00Z,26.4345,-81.9647,2.39,5.27,1111122 
SCCF RECON,ioos:station:SCCF:16:1,2008-09-04T14:00:00Z,26.4345,-81.9647,2.309,5.21,1111122 
SCCF RECON,ioos:station:SCCF:16:1,2008-09-04T15:00:00Z,26.4345,-81.9647,2.322,5.27,1111122 
SCCF RECON,ioos:station:SCCF:16:1,2008-09-04T16:00:00Z,26.4345,-81.9647,2.413,5.15,1111122 
SCCF RECON,ioos:station:SCCF:16:1,2008-09-04T17:00:00Z,26.4345,-81.9647,2.566,5.2,1111122 
SCCF RECON,ioos:station:SCCF:16:1,2008-09-04T18:00:00Z,26.4345,-81.9647,2.66,6.24,1111122 
SCCF RECON,ioos:station:SCCF:16:1,2008-09-04T19:00:00Z,26.4345,-81.9647,2.689,6.52,1111122 
SCCF RECON,ioos:station:SCCF:16:1,2008-09-04T20:00:00Z,26.4345,-81.9647,2.727,6.44,1111122 
SCCF RECON,ioos:station:SCCF:16:1,2008-09-04T21:00:00Z,26.4345,-81.9647,2.725,6.02,1111122 
SCCF RECON,ioos:station:SCCF:16:1,2008-09-04T22:00:00Z,26.4345,-81.9647,2.69,5.73,1111122 
SCCF RECON,ioos:station:SCCF:16:1,2008-09-04T23:00:00Z,26.4345,-81.9647,2.64,5.64,1111122 
SCCF RECON,ioos:station:SCCF:16:1,2008-09-05T00:00:00Z,26.4345,-81.9647,2.572,5.81,1111122 
SCCF RECON,ioos:station:SCCF:16:1,2008-09-05T01:00:00Z,26.4345,-81.9647,2.512,5.63,1111122 
SCCF RECON,ioos:station:SCCF:16:1,2008-09-05T02:00:00Z,26.4345,-81.9647,2.469,5.77,1111122 
SCCF RECON,ioos:station:SCCF:16:1,2008-09-05T03:00:00Z,26.4345,-81.9647,2.499,5.8,1111122 
SCCF RECON,ioos:station:SCCF:16:1,2008-09-05T04:00:00Z,26.4345,-81.9647,2.602,5.69,1111122 
SCCF RECON,ioos:station:SCCF:16:1,2008-09-05T05:00:00Z,26.4345,-81.9647,2.723,5.82,1111122 
SCCF RECON,ioos:station:SCCF:16:1,2008-09-05T06:00:00Z,26.4345,-81.9647,2.843,6.03,1111122 
SCCF RECON,ioos:station:SCCF:16:1,2008-09-05T07:00:00Z,26.4345,-81.9647,2.939,5.61,1111122 
SCCF RECON,ioos:station:SCCF:16:1,2008-09-05T08:00:00Z,26.4345,-81.9647,2.951,5.43,1111122 
SCCF RECON,ioos:station:SCCF:16:1,2008-09-05T09:00:00Z,26.4345,-81.9647,2.911,5.66,1111122 
SCCF RECON,ioos:station:SCCF:16:1,2008-09-05T10:00:00Z,26.4345,-81.9647,2.821,5.64,1111122 
SCCF RECON,ioos:station:SCCF:16:1,2008-09-05T11:00:00Z,26.4345,-81.9647,2.754,5.26,1111122 
SCCF RECON,ioos:station:SCCF:16:1,2008-09-05T12:00:00Z,26.4345,-81.9647,2.609,5.47,1111122 
SCCF RECON,ioos:station:SCCF:16:1,2008-09-05T13:00:00Z,26.4345,-81.9647,2.502,5.4,1111122 
SCCF RECON,ioos:station:SCCF:16:1,2008-09-05T14:00:00Z,26.4345,-81.9647,2.403,5.32,1111122 
SCCF RECON,ioos:station:SCCF:16:1,2008-09-05T15:00:00Z,26.4345,-81.9647,2.4,5.21,1111122 
SCCF RECON,ioos:station:SCCF:16:1,2008-09-05T16:00:00Z,26.4345,-81.9647,2.41,5.24,1111122 
SCCF RECON,ioos:station:SCCF:16:1,2008-09-05T17:00:00Z,26.4345,-81.9647,2.548,5.22,1111122 
SCCF RECON,ioos:station:SCCF:16:1,2008-09-05T18:00:00Z,26.4345,-81.9647,2.649,5.16,1111122 
SCCF RECON,ioos:station:SCCF:16:1,2008-09-05T19:00:00Z,26.4345,-81.9647,2.7,5.73,1111122 
SCCF RECON,ioos:station:SCCF:16:1,2008-09-05T20:00:00Z,26.4345,-81.9647,2.741,5.54,1111122 
SCCF RECON,ioos:station:SCCF:16:1,2008-09-05T21:00:00Z,26.4345,-81.9647,2.779,5.53,1111122 
SCCF RECON,ioos:station:SCCF:16:1,2008-09-05T22:00:00Z,26.4345,-81.9647,2.76,5.49,1111122 
SCCF RECON,ioos:station:SCCF:16:1,2008-09-05T23:00:00Z,26.4345,-81.9647,2.726,5.66,1111122 
SCCF RECON,ioos:station:SCCF:16:1,2008-09-06T00:00:00Z,26.4345,-81.9647,2.671,5.59,1111122 
SCCF RECON,ioos:station:SCCF:16:1,2008-09-06T01:00:00Z,26.4345,-81.9647,2.671,5.58,1111122 
SCCF RECON,ioos:station:SCCF:16:1,2008-09-06T02:00:00Z,26.4345,-81.9647,2.682,5.45,1111122 
SCCF RECON,ioos:station:SCCF:16:1,2008-09-06T03:00:00Z,26.4345,-81.9647,2.715,5.63,1111122 
SCCF RECON,ioos:station:SCCF:16:1,2008-09-06T04:00:00Z,26.4345,-81.9647,2.75,5.52,1111122 
SCCF RECON,ioos:station:SCCF:16:1,2008-09-06T05:00:00Z,26.4345,-81.9647,2.814,5.5,1111122 
SCCF RECON,ioos:station:SCCF:16:1,2008-09-06T06:00:00Z,26.4345,-81.9647,2.915,5.57,1111122 
SCCF RECON,ioos:station:SCCF:16:1,2008-09-06T07:00:00Z,26.4345,-81.9647,2.984,5.56,1111122 
SCCF RECON,ioos:station:SCCF:16:1,2008-09-06T08:00:00Z,26.4345,-81.9647,3.0,5.55,1111122 
SCCF RECON,ioos:station:SCCF:16:1,2008-09-06T09:00:00Z,26.4345,-81.9647,2.985,5.49,1111122 
SCCF RECON,ioos:station:SCCF:16:1,2008-09-06T10:00:00Z,26.4345,-81.9647,2.94,5.43,1111122 
SCCF RECON,ioos:station:SCCF:16:1,2008-09-06T11:00:00Z,26.4345,-81.9647,2.859,5.23,1111122 
SCCF RECON,ioos:station:SCCF:16:1,2008-09-06T12:00:00Z,26.4345,-81.9647,2.755,5.44,1111122 
SCCF RECON,ioos:station:SCCF:16:1,2008-09-06T13:00:00Z,26.4345,-81.9647,2.653,5.19,1111122 
SCCF RECON,ioos:station:SCCF:16:1,2008-09-06T14:00:00Z,26.4345,-81.9647,2.528,4.89,1111122 
SCCF RECON,ioos:station:SCCF:16:1,2008-09-06T15:00:00Z,26.4345,-81.9647,2.424,4.89,1111122 
SCCF RECON,ioos:station:SCCF:16:1,2008-09-06T16:00:00Z,26.4345,-81.9647,2.385,4.47,1111122 
SCCF RECON,ioos:station:SCCF:16:1,2008-09-06T17:00:00Z,26.4345,-81.9647,2.456,4.31,1111122 
SCCF RECON,ioos:station:SCCF:16:1,2008-09-06T18:00:00Z,26.4345,-81.9647,2.528,4.57,1111122 
SCCF RECON,ioos:station:SCCF:16:1,2008-09-06T19:00:00Z,26.4345,-81.9647,2.579,4.64,1111122 
SCCF RECON,ioos:station:SCCF:16:1,2008-09-06T20:00:00Z,26.4345,-81.9647,2.659,5.71,1111122 
SCCF RECON,ioos:station:SCCF:16:1,2008-09-06T21:00:00Z,26.4345,-81.9647,2.698,5.76,1111122 
SCCF RECON,ioos:station:SCCF:16:1,2008-09-06T22:00:00Z,26.4345,-81.9647,2.746,5.47,1111122 
SCCF RECON,ioos:station:SCCF:16:1,2008-09-06T23:00:00Z,26.4345,-81.9647,2.774,5.41,1111122 
SCCF RECON,ioos:station:SCCF:16:1,2008-09-07T00:00:00Z,26.4345,-81.9647,2.789,5.42,1111122 
SCCF RECON,ioos:station:SCCF:16:1,2008-09-07T01:00:00Z,26.4345,-81.9647,2.765,5.29,1111122 
SCCF RECON,ioos:station:SCCF:16:1,2008-09-07T02:00:00Z,26.4345,-81.9647,2.717,5.32,1111122 
SCCF RECON,ioos:station:SCCF:16:1,2008-09-07T03:00:00Z,26.4345,-81.9647,2.732,5.37,1111122 
SCCF RECON,ioos:station:SCCF:16:1,2008-09-07T04:00:00Z,26.4345,-81.9647,2.736,5.42,1111122 
SCCF RECON,ioos:station:SCCF:16:1,2008-09-07T05:00:00Z,26.4345,-81.9647,2.78,5.4,1111122 
SCCF RECON,ioos:station:SCCF:16:1,2008-09-07T06:00:00Z,26.4345,-81.9647,2.853,5.46,1111122 
SCCF RECON,ioos:station:SCCF:16:1,2008-09-07T07:00:00Z,26.4345,-81.9647,2.884,5.15,1111122 
SCCF RECON,ioos:station:SCCF:16:1,2008-09-07T08:00:00Z,26.4345,-81.9647,2.921,5.09,1111122 
SCCF RECON,ioos:station:SCCF:16:1,2008-09-07T09:00:00Z,26.4345,-81.9647,2.94,5.1,1111122 
SCCF RECON,ioos:station:SCCF:16:1,2008-09-07T10:00:00Z,26.4345,-81.9647,2.894,5.05,1111122 
SCCF RECON,ioos:station:SCCF:16:1,2008-09-07T11:00:00Z,26.4345,-81.9647,2.84,4.84,1111122 
SCCF RECON,ioos:station:SCCF:16:1,2008-09-07T12:00:00Z,26.4345,-81.9647,2.764,4.9,1111122 
SCCF RECON,ioos:station:SCCF:16:1,2008-09-07T13:00:00Z,26.4345,-81.9647,2.624,4.96,1111122 
SCCF RECON,ioos:station:SCCF:16:1,2008-09-07T14:00:00Z,26.4345,-81.9647,2.531,4.79,1111122 
SCCF RECON,ioos:station:SCCF:16:1,2008-09-07T15:00:00Z,26.4345,-81.9647,2.447,4.68,1111122 
SCCF RECON,ioos:station:SCCF:16:1,2008-09-07T16:00:00Z,26.4345,-81.9647,2.397,4.51,1111122 
SCCF RECON,ioos:station:SCCF:16:1,2008-09-07T17:00:00Z,26.4345,-81.9647,2.321,4.72,1111122 
SCCF RECON,ioos:station:SCCF:16:1,2008-09-07T18:00:00Z,26.4345,-81.9647,2.31,4.62,1111122 
SCCF RECON,ioos:station:SCCF:16:1,2008-09-07T19:00:00Z,26.4345,-81.9647,2.412,4.32,1111122 
SCCF RECON,ioos:station:SCCF:16:1,2008-09-07T20:00:00Z,26.4345,-81.9647,2.49,4.48,1111122 
SCCF RECON,ioos:station:SCCF:16:1,2008-09-07T21:00:00Z,26.4345,-81.9647,2.543,5.43,1111122 
SCCF RECON,ioos:station:SCCF:16:1,2008-09-07T22:00:00Z,26.4345,-81.9647,2.59,5.82,1111122 
SCCF RECON,ioos:station:SCCF:16:1,2008-09-07T23:00:00Z,26.4345,-81.9647,2.651,5.49,1111122 
SCCF RECON,ioos:station:SCCF:16:1,2008-09-08T00:00:00Z,26.4345,-81.9647,2.733,5.61,1111122 
SCCF RECON,ioos:station:SCCF:16:1,2008-09-08T01:00:00Z,26.4345,-81.9647,2.743,6.23,1111122 
SCCF RECON,ioos:station:SCCF:16:1,2008-09-08T02:00:00Z,26.4345,-81.9647,2.734,6.38,1111122 
SCCF RECON,ioos:station:SCCF:16:1,2008-09-08T03:00:00Z,26.4345,-81.9647,2.722,6.36,1111122 
SCCF RECON,ioos:station:SCCF:16:1,2008-09-08T04:00:00Z,26.4345,-81.9647,2.743,6.61,1111122 
SCCF RECON,ioos:station:SCCF:16:1,2008-09-08T05:00:00Z,26.4345,-81.9647,2.69,6.62,1111122 
SCCF RECON,ioos:station:SCCF:16:1,2008-09-08T06:00:00Z,26.4345,-81.9647,2.674,6.3,1111122 
SCCF RECON,ioos:station:SCCF:16:1,2008-09-08T07:00:00Z,26.4345,-81.9647,2.725,6.48,1111122 
SCCF RECON,ioos:station:SCCF:16:1,2008-09-08T08:00:00Z,26.4345,-81.9647,2.757,6.5,1111122 
SCCF RECON,ioos:station:SCCF:16:1,2008-09-08T09:00:00Z,26.4345,-81.9647,2.792,6.49,1111122 
SCCF RECON,ioos:station:SCCF:16:1,2008-09-08T10:00:00Z,26.4345,-81.9647,2.812,6.47,1111122 
SCCF RECON,ioos:station:SCCF:16:1,2008-09-08T11:00:00Z,26.4345,-81.9647,2.813,6.37,1111122 
SCCF RECON,ioos:station:SCCF:16:1,2008-09-08T12:00:00Z,26.4345,-81.9647,2.795,6.29,1111122 
SCCF RECON,ioos:station:SCCF:16:1,2008-09-08T13:00:00Z,26.4345,-81.9647,2.736,6.11,1111122 
SCCF RECON,ioos:station:SCCF:16:1,2008-09-08T14:00:00Z,26.4345,-81.9647,2.626,6.23,1111122 
SCCF RECON,ioos:station:SCCF:16:1,2008-09-08T15:00:00Z,26.4345,-81.9647,2.491,6.27,1111122 
SCCF RECON,ioos:station:SCCF:16:1,2008-09-08T16:00:00Z,26.4345,-81.9647,2.397,6.57,1111122 
SCCF RECON,ioos:station:SCCF:16:1,2008-09-08T17:00:00Z,26.4345,-81.9647,2.317,5.29,1111122 
SCCF RECON,ioos:station:SCCF:16:1,2008-09-08T18:00:00Z,26.4345,-81.9647,2.33,6.26,1111122 
SCCF RECON,ioos:station:SCCF:16:1,2008-09-08T19:00:00Z,26.4345,-81.9647,2.316,6.4,1111122 
SCCF RECON,ioos:station:SCCF:16:1,2008-09-08T20:00:00Z,26.4345,-81.9647,2.343,6.66,1111122 
SCCF RECON,ioos:station:SCCF:16:1,2008-09-08T21:00:00Z,26.4345,-81.9647,2.386,6.36,1111122 
SCCF RECON,ioos:station:SCCF:16:1,2008-09-08T22:00:00Z,26.4345,-81.9647,2.484,6.22,1111122 
SCCF RECON,ioos:station:SCCF:16:1,2008-09-08T23:00:00Z,26.4345,-81.9647,2.57,6.72,1111122 
SCCF RECON,ioos:station:SCCF:16:1,2008-09-09T00:00:00Z,26.4345,-81.9647,2.744,6.32,1111122 
SCCF RECON,ioos:station:SCCF:16:1,2008-09-09T01:00:00Z,26.4345,-81.9647,2.466,5.96,1111122 
SCCF RECON,ioos:station:SCCF:16:1,2008-09-09T02:00:00Z,26.4345,-81.9647,2.559,5.68,1111122 
SCCF RECON,ioos:station:SCCF:16:1,2008-09-09T03:00:00Z,26.4345,-81.9647,2.576,6.31,1111122 
SCCF RECON,ioos:station:SCCF:16:1,2008-09-09T04:00:00Z,26.4345,-81.9647,2.67,6.27,1111122 
SCCF RECON,ioos:station:SCCF:16:1,2008-09-09T05:00:00Z,26.4345,-81.9647,2.633,6.1,1111122 
SCCF RECON,ioos:station:SCCF:16:1,2008-09-09T06:00:00Z,26.4345,-81.9647,2.57,5.26,1111122 
SCCF RECON,ioos:station:SCCF:16:1,2008-09-09T07:00:00Z,26.4345,-81.9647,2.54,5.47,1111122 
SCCF RECON,ioos:station:SCCF:16:1,2008-09-09T08:00:00Z,26.4345,-81.9647,2.765,5.67,1111122 
SCCF RECON,ioos:station:SCCF:16:1,2008-09-09T09:00:00Z,26.4345,-81.9647,2.688,5.69,1111122 
SCCF RECON,ioos:station:SCCF:16:1,2008-09-09T10:00:00Z,26.4345,-81.9647,2.627,5.48,1111122 
SCCF RECON,ioos:station:SCCF:16:1,2008-09-09T11:00:00Z,26.4345,-81.9647,2.635,5.32,1111122 
SCCF RECON,ioos:station:SCCF:16:1,2008-09-09T12:00:00Z,26.4345,-81.9647,2.699,5.46,1111122 
SCCF RECON,ioos:station:SCCF:16:1,2008-09-09T13:00:00Z,26.4345,-81.9647,2.665,5.63,1111122 
SCCF RECON,ioos:station:SCCF:16:1,2008-09-09T14:00:00Z,26.4345,-81.9647,2.68,5.81,1111122 
SCCF RECON,ioos:station:SCCF:16:1,2008-09-09T15:00:00Z,26.4345,-81.9647,2.593,5.76,1111122 
SCCF RECON,ioos:station:SCCF:16:1,2008-09-09T16:00:00Z,26.4345,-81.9647,2.452,5.63,1111122 
SCCF RECON,ioos:station:SCCF:16:1,2008-09-09T17:00:00Z,26.4345,-81.9647,2.418,5.67,1111122 
SCCF RECON,ioos:station:SCCF:16:1,2008-09-09T18:00:00Z,26.4345,-81.9647,2.088,5.82,1111122 
SCCF RECON,ioos:station:SCCF:16:1,2008-09-09T19:00:00Z,26.4345,-81.9647,2.202,5.85,1111122 
SCCF RECON,ioos:station:SCCF:16:1,2008-09-09T20:00:00Z,26.4345,-81.9647,2.274,5.86,1111122 
SCCF RECON,ioos:station:SCCF:16:1,2008-09-09T21:00:00Z,26.4345,-81.9647,2.398,6.11,1111122 
SCCF RECON,ioos:station:SCCF:16:1,2008-09-09T22:00:00Z,26.4345,-81.9647,2.288,6.19,1111122 
SCCF RECON,ioos:station:SCCF:16:1,2008-09-09T23:00:00Z,26.4345,-81.9647,2.415,6.11,1111122 
SCCF RECON,ioos:station:SCCF:16:1,2008-09-10T00:00:00Z,26.4345,-81.9647,2.508,5.99,1111122 
SCCF RECON,ioos:station:SCCF:16:1,2008-09-10T01:00:00Z,26.4345,-81.9647,2.673,5.95,1111122 
SCCF RECON,ioos:station:SCCF:16:1,2008-09-10T02:00:00Z,26.4345,-81.9647,2.796,6.08,1111122 
SCCF RECON,ioos:station:SCCF:16:1,2008-09-10T03:00:00Z,26.4345,-81.9647,2.84,6.11,1111122 
SCCF RECON,ioos:station:SCCF:16:1,2008-09-10T04:00:00Z,26.4345,-81.9647,2.895,6.08,1111122 
SCCF RECON,ioos:station:SCCF:16:1,2008-09-10T05:00:00Z,26.4345,-81.9647,2.812,6.01,1111122 
SCCF RECON,ioos:station:SCCF:16:1,2008-09-10T06:00:00Z,26.4345,-81.9647,2.875,6.02,1111122 
SCCF RECON,ioos:station:SCCF:16:1,2008-09-10T07:00:00Z,26.4345,-81.9647,2.808,5.93,1111122 
SCCF RECON,ioos:station:SCCF:16:1,2008-09-10T08:00:00Z,26.4345,-81.9647,2.917,6.0,1111122 
SCCF RECON,ioos:station:SCCF:16:1,2008-09-10T09:00:00Z,26.4345,-81.9647,3.003,6.03,1111122 
SCCF RECON,ioos:station:SCCF:16:1,2008-09-10T10:00:00Z,26.4345,-81.9647,3.066,6.04,1111122 
SCCF RECON,ioos:station:SCCF:16:1,2008-09-10T11:00:00Z,26.4345,-81.9647,3.15,6.04,1111122 
SCCF RECON,ioos:station:SCCF:16:1,2008-09-10T12:00:00Z,26.4345,-81.9647,3.224,6.09,1111122 
SCCF RECON,ioos:station:SCCF:16:1,2008-09-10T13:00:00Z,26.4345,-81.9647,3.33,6.11,1111122 
SCCF RECON,ioos:station:SCCF:16:1,2008-09-10T14:00:00Z,26.4345,-81.9647,3.343,6.08,1111122 
SCCF RECON,ioos:station:SCCF:16:1,2008-09-10T15:00:00Z,26.4345,-81.9647,3.262,6.11,1111122 
SCCF RECON,ioos:station:SCCF:16:1,2008-09-10T16:00:00Z,26.4345,-81.9647,3.177,6.02,1111122 
SCCF RECON,ioos:station:SCCF:16:1,2008-09-10T17:00:00Z,26.4345,-81.9647,2.968,6.07,1111122 
SCCF RECON,ioos:station:SCCF:16:1,2008-09-10T18:00:00Z,26.4345,-81.9647,2.897,6.02,1111122 
SCCF RECON,ioos:station:SCCF:16:1,2008-09-10T19:00:00Z,26.4345,-81.9647,2.804,6.1,1111122 
SCCF RECON,ioos:station:SCCF:16:1,2008-09-10T20:00:00Z,26.4345,-81.9647,2.689,6.04,1111122 
SCCF RECON,ioos:station:SCCF:16:1,2008-09-10T21:00:00Z,26.4345,-81.9647,2.741,6.02,1111122 
SCCF RECON,ioos:station:SCCF:16:1,2008-09-10T22:00:00Z,26.4345,-81.9647,2.827,6.04,1111122 
SCCF RECON,ioos:station:SCCF:16:1,2008-09-10T23:00:00Z,26.4345,-81.9647,2.874,5.96,1111122 
SCCF RECON,ioos:station:SCCF:16:1,2008-09-11T00:00:00Z,26.4345,-81.9647,2.875,5.9,1111122 
SCCF RECON,ioos:station:SCCF:16:1,2008-09-11T01:00:00Z,26.4345,-81.9647,2.858,5.86,1111122 
SCCF RECON,ioos:station:SCCF:16:1,2008-09-11T02:00:00Z,26.4345,-81.9647,2.982,5.83,1111122 
SCCF RECON,ioos:station:SCCF:16:1,2008-09-11T03:00:00Z,26.4345,-81.9647,3.12,6.03,1111122 
SCCF RECON,ioos:station:SCCF:16:1,2008-09-11T04:00:00Z,26.4345,-81.9647,3.162,6.11,1111122 
SCCF RECON,ioos:station:SCCF:16:1,2008-09-11T05:00:00Z,26.4345,-81.9647,3.036,6.08,1111122 
SCCF RECON,ioos:station:SCCF:16:1,2008-09-11T06:00:00Z,26.4345,-81.9647,2.95,6.12,1111122 
SCCF RECON,ioos:station:SCCF:16:1,2008-09-11T07:00:00Z,26.4345,-81.9647,2.903,6.02,1111122 
SCCF RECON,ioos:station:SCCF:16:1,2008-09-11T08:00:00Z,26.4345,-81.9647,2.834,5.91,1111122 
SCCF RECON,ioos:station:SCCF:16:1,2008-09-11T09:00:00Z,26.4345,-81.9647,2.861,5.88,1111122 
SCCF RECON,ioos:station:SCCF:16:1,2008-09-11T10:00:00Z,26.4345,-81.9647,2.967,5.92,1111122 
SCCF RECON,ioos:station:SCCF:16:1,2008-09-11T11:00:00Z,26.4345,-81.9647,3.054,5.85,1111122 
SCCF RECON,ioos:station:SCCF:16:1,2008-09-11T12:00:00Z,26.4345,-81.9647,3.103,5.83,1111122 
SCCF RECON,ioos:station:SCCF:16:1,2008-09-11T13:00:00Z,26.4345,-81.9647,3.15,5.94,1111122 
SCCF RECON,ioos:station:SCCF:16:1,2008-09-11T14:00:00Z,26.4345,-81.9647,3.121,6.01,1111122 
SCCF RECON,ioos:station:SCCF:16:1,2008-09-11T15:00:00Z,26.4345,-81.9647,3.143,6.01,1111122 
SCCF RECON,ioos:station:SCCF:16:1,2008-09-11T16:00:00Z,26.4345,-81.9647,3.068,5.97,1111122 
SCCF RECON,ioos:station:SCCF:16:1,2008-09-11T17:00:00Z,26.4345,-81.9647,2.93,6.06,1111122 
SCCF RECON,ioos:station:SCCF:16:1,2008-09-11T18:00:00Z,26.4345,-81.9647,2.754,5.97,1111122 
SCCF RECON,ioos:station:SCCF:16:1,2008-09-11T19:00:00Z,26.4345,-81.9647,2.565,5.64,1111122 